Regional Weather Roundup
Issued by NWS Glasgow, MT

Home | Current Version | Previous Version | Text Only | Print | Product List | Glossary On
Versions: 1 2 3 4 5 6 7 8 9 10 11 12 13 14 15 16 17 18 19 20 21 22 23 24 25 26 27 28 29 30 31 32 33 34 35 36 37 38 39 40 41 42 43 44 45 46 47 48 49 50
000
ASUS45 KGGW 021915
RWRGGW
HOURLY REGIONAL WEATHER ROUNDUP FOR NORTHEAST MONTANA
NATIONAL WEATHER SERVICE GLASGOW MONTANA
100 PM MDT SUN AUG 02 2015

NOTE: "FAIR" INDICATES FEW OR NO CLOUDS BELOW 12,000 FEET WITH NO
SIGNIFICANT WEATHER AND/OR OBSTRUCTIONS TO VISISBILITY.

NORTHEAST MONTANA


CITY           SKY/WX    TMP DP  RH WIND       PRES   REMARKS
GLASGOW        SUNNY     80  48  32 N10       30.02F
PLENTYWOOD       N/A     74  47  38 N9G20       N/A
WOLF POINT     SUNNY     82  47  29 N8        30.02F
JORDAN           N/A     81  47  30 CALM      30.04F
WINNETT          N/A     80  44  27 E7          N/A
SIDNEY         SUNNY    N/A N/A N/A NW13      29.99S
GLENDIVE         N/A    N/A N/A N/A MISG        N/A
MALTA            N/A     80  53  39 E3          N/A
SCOBEY           N/A     74  47  38 W7        30.03

FORT PECK REPORTS


CITY           SKY/WX    TMP DP  RH WIND       PRES   REMARKS
FORT PECK        N/A     76  60  57 S7          N/A
THE PINES        N/A     78  51  38 NE7         N/A

SOUTHEAST MONTANA


CITY           SKY/WX    TMP DP  RH WIND       PRES   REMARKS
BILLINGS       MOSUNNY   80  49  33 NE12      30.07S
MILES CITY     SUNNY     83  48  29 NE12G22   30.01F
BAKER          SUNNY     82  47  29 N12       30.03F
LIVINGSTON     SUNNY     87  41  19 E12       30.08S

CENTRAL MONTANA


CITY           SKY/WX    TMP DP  RH WIND       PRES   REMARKS
HAVRE          SUNNY     81  50  33 E9        30.03F
LEWISTOWN      SUNNY     79  50  36 SE10G18   30.10F
GREAT FALLS    SUNNY     78  52  40 N7        30.06F
CUT BANK       SUNNY     77  51  40 SE12G17   30.06F
HELENA         SUNNY     84  49  29 VRB6      30.05F
BUTTE          SUNNY     83  24  11 NE6       30.15F
BOZEMAN        SUNNY     85  40  20 CALM      30.09F

WESTERN MONTANA


CITY           SKY/WX    TMP DP  RH WIND       PRES   REMARKS
MISSOULA       SUNNY     79  40  24 CALM      30.02F
KALISPELL      NOT AVBL

NORTH DAKOTA


CITY           SKY/WX    TMP DP  RH WIND       PRES   REMARKS
WILLISTON      MOSUNNY   79  50  36 N8G18     30.00S
DICKINSON      SUNNY     78  50  37 N8G17     29.99S
MINOT          MOSUNNY   73  48  41 N12       29.94F
BISMARCK       MOSUNNY   78  54  43 N15       29.94F

SOUTHERN SASKATCHEWAN


CITY           SKY/WX    TMP DP  RH WIND       PRES   REMARKS
REGINA         MOSUNNY   73  52  46 N12G24    30.01S
ESTEVAN        MOSUNNY   75  52  43 NW13G23   29.98F
SWIFT CURRENT  MOSUNNY   70  52  52 NE3       30.06F




USA.gov is the U.S. government's official web portal to all federal, state and local government web resources and services.